Location: Montreal
(45.5000°N, 73.5833°W)
Time: 18:03:39
(UTC-04:00)

ISS - Pass Details

Date: 11 October 2017
Orbit: 401 x 408 km, 51.6° (Epoch: 20 October)

Event Time Altitude Azimuth Distance (km) Brightness Sun altitude
Rises 20:25:39 0° 294° (WNW) 2,328 1.4 -23.5°
Reaches altitude 10° 20:27:49 10° 286° (WNW) 1,466 0.1 -23.9°
Enters shadow 20:30:06 31° 250° (WSW) 745 -2.1 -24.2°
